www.pogodaiklimat.ru

Погода и климат >> Архив погоды >> Россия >> Магаданская область >> Совхоз Эльген


ПОГОДА в Совхозе Эльген

  • Прогноз погоды в Совхозе Эльген
  • Монитор погоды в Совхозе Эльген

АРХИВ ПОГОДЫ в Совхозе Эльген

Время (UTC), дата Ветер
(напр.,м/с)
 
Видим.   Явления Облачность Т
(С)
Тd
(С)
f
(%)
Тe
(С)
Тes
(С)
Комфортность P
(гПа)
Po
(гПа)
Тmin
(С)
Tmax
(С)
R
(мм)
R24
(мм)
S
(см)
21 16.01 штиль 0 50 км ледяные иглы {снег} ясно -52.0 -57.5 51 -52 -52 опасность
обморожения
1040.5 991.6 -52.1 47
00 17.01 штиль 0 50 км ледяные иглы {снег} ясно -51.3 -56.6 53 -51 -51 опасность
обморожения
1039.4 990.7 -52.1
03 17.01 штиль 0 50 км ледяные иглы {снег} ясно -46.4 -52.0 53 -46 -46 опасность
обморожения
1036.1 988.6
06 17.01 штиль 0 50 км ледяные иглы {снег} ясно -49.1 -54.4 54 -49 -49 опасность
обморожения
1035.6 987.6
09 17.01 штиль 0 50 км ледяные иглы {снег} ясно -50.9 -56.3 52 -51 -51 опасность
обморожения
1035.3 986.9 -46.4
12 17.01 штиль 0 50 км ледяные иглы {снег} ясно -51.5 -56.9 52 -52 -52 опасность
обморожения
1034.1 985.6
15 17.01 штиль 0 н/о н/о -51.8 -57.3 51 -52 -52 опасность
обморожения
1032.8 984.3
18 17.01 штиль 0 50 км ледяные иглы {снег} ясно -51.8 -57.3 51 -52 -52 опасность
обморожения
1032.0 983.6
21 17.01 штиль 0 50 км ледяные иглы {снег} ясно -51.9 -57.4 51 -52 -52 опасность
обморожения
1031.7 983.3 -52.1 47
00 18.01 штиль 0 50 км ледяные иглы {снег} 3/0
[Ci fib]
-51.1 -56.5 52 -51 -51 опасность
обморожения
1031.4 983.1
03 18.01 штиль 0 50 км {снег} 6/0
[Ci fib]
-48.6 -54.0 53 -49 -48 опасность
обморожения
1029.9 982.2
06 18.01 штиль 0 50 км {снег} 9/0
[Ac trans Ci fib]
-48.4 -53.6 55 -48 -48 опасность
обморожения
1029.6 982.0
09 18.01 штиль 0 50 км 9/0
[Ac trans Ci fib]
-47.8 -53.0 55 -48 -48 опасность
обморожения
1029.9 982.4 -47.8
12 18.01 штиль 0 50 км 9/0
[Ac trans Ci fib]
-46.0 -51.1 56 -46 -46 опасность
обморожения
1029.9 982.8
15 18.01 штиль 0 50 км 9/0
[Ac trans Ci fib]
-44.7 -49.6 58 -45 -45 опасность
обморожения
1029.5 982.6
18 18.01 штиль 0 50 км 9/0
[Ac trans Ci fib]
-42.4 -47.3 58 -42 -42 опасность
обморожения
1029.0 982.6
21 18.01 штиль 0 50 км 6/0
[Ci fib]
-44.7 -49.7 57 -45 -45 опасность
обморожения
1029.8 983.0 -48.0 47
00 19.01 штиль 0 50 км 3/0
[Ci fib]
-46.0 -51.1 56 -46 -46 опасность
обморожения
1031.0 983.8
03 19.01 штиль 0 50 км 1/0
[Ci fib]
-40.1 -45.3 57 -40 -40 опасность
обморожения
1029.8 983.8
06 19.01 штиль 0 50 км 6/0
[Ac trans Ci fib]
-43.3 -48.1 59 -43 -43 опасность
обморожения
1031.3 984.6
09 19.01 штиль 0 50 км 9/0
[Ac trans Ci fib]
-40.9 -45.5 61 -41 -41 опасность
обморожения
1030.9 984.7 -40.1
12 19.01 штиль 0 50 км 10/0
[Ac trans Cs]
-39.1 -43.6 62 -39 -39 опасность
обморожения
1029.9 984.2
15 19.01 штиль 0 50 км 9/0
[Ac trans Cs]
-38.1 -42.4 64 -38 -38 опасность
обморожения
1028.9 983.4
18 19.01 штиль 0 50 км 10/0
[Ac trans Cs]
-36.5 -40.8 64 -37 -37 опасность
обморожения
1027.0 981.8
21 19.01 штиль 0 50 км 9/3 1000 м
[Sc Ac trans Ci fib]
-36.6 -40.9 64 -37 -37 опасность
обморожения
1026.7 981.5 -40.9 47
00 20.01 штиль 0 10 км слаб. ливневой снег 10/10 1000 м
[Cb cap]
-34.2 -38.4 66 -34 -34 опасность
обморожения
1025.3 980.6
03 20.01 штиль 0 20 км слаб. ливневой снег ?/? -31.8 -35.9 67 -32 -32 опасность
обморожения
1022.8 978.7
06 20.01 штиль 0 20 км слаб. ливневой снег 10/10 1000 м
[Cb cap]
-30.9 -34.7 69 -31 -31 опасность
обморожения
1021.5 977.6
09 20.01 штиль 0 10 км слаб. ливневой снег 10/10 1000 м
[Cb cap]
-29.9 -33.5 71 -30 -30 1021.0 977.3 -29.9 0.7
12 20.01 штиль 0 20 км слаб. ливневой снег 10/10 1000 м
[Cb cap]
-28.8 -32.2 72 -29 -29 1020.3 976.9
15 20.01 штиль 0 20 км слаб. ливневой снег 10/10 1000 м
[Cb cap]
-27.8 -31.1 73 -28 -28 1019.9 976.6
18 20.01 штиль 0 50 км {ливн. осадки} 10/6 1000 м
[Cb cap Ac trans]
-28.3 -31.6 73 -28 -28 1020.1 976.7
21 20.01 штиль 0 50 км 10/8 1000 м
[Cb cap Ac trans]
-28.2 -31.6 73 -28 -28 1020.2 976.9 -29.9 0.4 49
00 21.01 штиль 0 50 км 10/8 1000 м
[Cb cap Ac trans]
-28.0 -31.2 74 -28 -28 1020.9 977.6
03 21.01 штиль 0 50 км 10/6 1000 м
[Sc Ac trans]
-24.8 -28.7 70 -25 -25 1020.8 978.0
06 21.01 штиль 0 50 км 10/8 1000 м
[Sc Ac trans]
-26.5 -29.7 74 -27 -27 1021.7 978.5
09 21.01 штиль 0 50 км 10/6 1000 м
[Sc Ac trans]
-26.4 -29.4 76 -26 -26 1023.2 980.0 -24.8
12 21.01 штиль 0 50 км 10/5 1000 м
[Sc Ac As]
-26.6 -29.6 76 -27 -27 1024.4 981.1
15 21.01 штиль 0 50 км 10/4 1000 м
[Sc Ac trans]
-26.4 -29.4 76 -26 -26 1024.9 981.6
18 21.01 штиль 0 50 км 10/8 1000 м
[Sc Ac trans]
-25.6 -28.7 75 -26 -26 1025.8 982.6
21 21.01 штиль 0 50 км 10/10 1000 м
[Cb cap]
-24.7 -27.8 75 -25 -25 1026.5 983.5 -26.7 49
00 22.01 штиль 0 50 км 10/6 1000 м
[Cb cap Ac trans]
-25.8 -28.8 76 -26 -26 1027.1 983.8
03 22.01 штиль 0 50 км 9/6 1000 м
[Sc Ac trans Ci fib]
-23.1 -26.6 73 -23 -23 1027.0 984.2
06 22.01 штиль 0 50 км 9/4 1000 м
[Sc Ac trans Ci fib]
-26.8 -29.8 76 -27 -27 1028.3 984.8
09 22.01 штиль 0 50 км 8/0
[Ac trans Ci fib]
-28.7 -31.8 75 -29 -29 1029.8 985.9 -23.1
12 22.01 штиль 0 50 км 8/0
[Ac trans Ci fib]
-32.7 -36.2 71 -33 -33 опасность
обморожения
1031.4 986.7
15 22.01 штиль 0 50 км 5/0
[Ci fib]
-34.7 -38.4 69 -35 -35 опасность
обморожения
1032.2 987.2
18 22.01 штиль 0 50 км 4/0
[Ci fib]
-35.9 -39.8 67 -36 -36 опасность
обморожения
1033.0 987.7
21 22.01 штиль 0 50 км 6/0
[Ac trans Ci fib]
-35.2 -39.1 67 -35 -35 опасность
обморожения
1033.5 988.3 -35.9 49
00 23.01 штиль 0 50 км 4/0
[Ac trans Ci fib]
-35.8 -39.9 66 -36 -36 опасность
обморожения
1034.1 988.8 -36.3
03 23.01 штиль 0 50 км 8/0
[Ac trans Ci fib]
-29.3 -33.6 66 -29 -29 1032.4 988.3
06 23.01 штиль 0 50 км 3/3 1000 м
[Sc]
-33.0 -36.6 70 -33 -33 опасность
обморожения
1033.4 988.6
09 23.01 штиль 0 50 км 3/3 1000 м
[Sc Ci fib]
-32.8 -36.3 71 -33 -33 опасность
обморожения
1033.2 988.5 -29.1
12 23.01 штиль 0 50 км 9/8 1000 м
[Sc Ci fib]
-27.7 -31.2 72 -28 -28 1031.4 987.6
15 23.01 штиль 0 50 км 10/10 1000 м
[Sc]
-25.7 -28.9 74 -26 -26 1029.8 986.5
18 23.01 штиль 0 50 км 10/10 1000 м
[Sc]
-24.2 -27.2 76 -24 -24 1029.1 986.0

 

Местоположение метеостанции Совхоз Эльген (Магаданская область, Россия): широта 62.80 долгота 150.60 высота над уровнем моря 312 м.

В архиве по умолчанию представлена погода в Совхозе Эльген за последнюю неделю. Архивные данные за месяц целиком и за предыдущие месяцы, начиная с января 2011 года, Вы можете получить, выбрав интересующий диапазон дат из раскрывающегося списка и нажав кнопку "Ввод!".


*Определитесь, кто Вы:
робот инопланетянин человек

Внимание! Время в таблицах - всемирное. Для получения местного времени необходимо прибавить поправку, которая равна 11 ч.

Смотрите также архив погоды в соседних городах и на ближайших метеорологических станциях:

Погода в Ягодной (Магаданская область, Россия) (60 км)
Погода в Усть-Бохапче (Магаданская область, Россия) (78 км)
Погода в Сеймчане (Магаданская область, Россия) (92 км)
Погода в Среднекане (Магаданская область, Россия) (95 км)
Погода на Озере Джека Лондона (Магаданская область, Россия) (98 км)
Погода в Сусумане (Магаданская область, Россия) (127 км)
Погода в Колымской (Магаданская область, Россия) (188 км)
Погода в Усть-Омчуге (Магаданская область, Россия) (194 км)
Погода в Талой (Магаданская область, Россия) (206 км)
Погода в Балыгычане (Магаданская область, Россия) (214 км)

Пояснения к столбцам:

Ветер - указаны скорость ветра в м/с - средняя за 10 мин, порывы в срок и между сроками (в фигурных скобках) и направление, откуда дует ветер: С - северный, СВ - северо-восточный, В - восточный, ЮВ - юго-восточный, Ю - южный, ЮЗ - юго-западный, З - западный, СЗ - северо-западный.
Видимость - горизонтальная дальность видимости в метрах или километрах. При видимости от 1 до 10 км при отсутствии осадков обычно наблюдается дымка, при ухудшении видимости до 1 км и менее - туман. В сухую погоду видимость может ухудшаться дымом, пылью или мглою.
Явления - указаны атмосферные явления, наблюдавшиеся в срок или в последний час перед сроком; фигурными скобками обозначены явления, наблюдавшиеся между сроками (за 1-3 часа до срока); квадратными скобками обозначены град или гололедные отложения с указанием их диаметра в мм.
Облачность - указаны через наклонную черту общая и нижняя облачность в баллах и высота нижней границы облаков в метрах; квадратными скобками обозначены формы облаков: Ci - перистые, Cs - перисто-слоистые, Cc - перисто-кучевые, Ac - высококучевые, As - высокослоистые, Sc - слоисто-кучевые, Ns - слоисто-дождевые, Cu - кучевые, Cb - кучево-дождевые. Подробнее классификацию облаков см. в Атласе облаков (PDF).
T - Температура воздуха - температура, измеренная на высоте 2 м над землей.
Td - Температура точки росы - температура, при понижении до которой содержащийся в воздухе водяной пар достигнет насыщения.
f - Относительная влажность воздуха - влажноcть воздуха, измеренная на высоте 2 м над землей.
Te - Эффективная температура - температура, которую ощущает одетый по сезону человек в тени. Характеристика душности погоды. При расчете учитывается влияние влажности воздуха и скорости ветра на теплоощущения человека.
Tes - Эффективная температура на солнце - температура, которую ощущает человек, с поправкой на солнечный нагрев. Характеристика знойности погоды. Зависит от высоты солнца над горизонтом, облачности и скорости ветра. Ночью, в пасмурную погоду, а также при ветре 12 м/с и более поправка равна нулю.
P - Атмосферное давление - приведенное к уровню моря атмосферное давление.
Po - Атмосферное давление - измеренное на уровне метеостанции атмосферное давление.
Tmin - Минимальная температура - минимум температуры воздуха на высоте 2 м над землей.
Tmax - Максимальная температура - максимум температуры воздуха на высоте 2 м над землей.
R - Количество осадков - Количество выпавших осадков за период времени, мм. При наведении курсора мыши на число - период времени, за который выпало указанное количество осадков.
R24 - Количество осадков - Количество выпавших осадков за 24 часа, мм.
S - Снежный покров - Высота снежного покрова, см. При наведении курсора мыши на число - состояние снежного покрова и степень покрытия местности в баллах.